EW7239 Weather Reports


time (UTC)temp
C
wind
direction
speed
KPH
gust
KPH
rain 1hr
cm
rain 24hr
cm
rain mn
cm
humidity
%
barometer
mb
20260904223833 31 219 9.7 20.9 0.00 0.00 0.00 32 1012.1
20260904223333 30 252 9.7 17.7 0.00 0.00 0.00 34 1012.2
20260904222334 31 254 8.0 17.7 0.00 0.00 0.00 33 1012.2
20260904221834 31 228 9.7 17.7 0.00 0.00 0.00 33 1012.2
20260904221604 31 257 8.0 17.7 0.00 0.00 0.00 32 1012.3
20260904220832 31 227 6.4 16.1 0.00 0.00 0.00 32 1012.5
20260904220333 31 230 8.0 16.1 0.00 0.00 0.00 32 1012.5
20260904215833 31 223 6.4 16.1 0.00 0.00 0.00 31 1012.5
20260904215335 31 231 8.0 14.5 0.00 0.00 0.00 32 1012.5
20260904214833 31 231 9.7 14.5 0.00 0.00 0.00 32 1012.5
20260904214603 31 221 6.4 16.1 0.00 0.00 0.00 32 1012.6
20260904213833 31 203 6.4 16.1 0.00 0.00 0.00 33 1012.6
20260904213333 31 229 8.0 20.9 0.00 0.00 0.00 33 1012.6
20260904212833 30 225 6.4 20.9 0.00 0.00 0.00 34 1012.7
20260904212335 31 232 4.8 19.3 0.00 0.00 0.00 35 1012.7
20260904211834 30 227 8.0 19.3 0.00 0.00 0.00 36 1012.7
20260904211334 30 221 9.7 19.3 0.00 0.00 0.00 38 1012.8
20260904210834 30 215 8.0 17.7 0.00 0.00 0.00 38 1012.8
20260904210336 30 225 8.0 17.7 0.00 0.00 0.00 37 1012.9
20260904205833 30 249 8.0 14.5 0.00 0.00 0.00 38 1012.9
20260904205604 30 211 6.4 14.5 0.00 0.00 0.00 39 1012.9
20260904204833 30 213 4.8 12.9 0.00 0.00 0.00 37 1012.9
20260904204605 30 209 3.2 12.9 0.00 0.00 0.00 36 1013.0
20260904203833 30 208 4.8 12.9 0.00 0.00 0.00 36 1013.0
20260904203333 30 208 6.4 12.9 0.00 0.00 0.00 36 1013.0
20260904202333 30 207 4.8 11.3 0.00 0.00 0.00 35 1013.1
20260904201832 29 212 6.4 11.3 0.00 0.00 0.00 37 1013.1
20260904201333 29 212 8.0 16.1 0.00 0.00 0.00 38 1013.3
20260904200834 28 211 8.0 16.1 0.00 0.00 0.00 37 1013.3
20260904200333 28 221 6.4 16.1 0.00 0.00 0.00 36 1013.3
20260904195835 29 213 6.4 14.5 0.00 0.00 0.00 36 1013.4
20260904195334 28 203 4.8 14.5 0.00 0.00 0.00 32 1013.3
20260904194833 28 220 3.2 12.9 0.00 0.00 0.00 37 1013.5
20260904194604 28 235 3.2 11.3 0.00 0.00 0.00 40 1013.6
20260904193833 28 228 4.8 11.3 0.00 0.00 0.00 40 1013.6
20260904193334 28 223 6.4 11.3 0.00 0.00 0.00 40 1013.6
20260904192833 27 225 4.8 11.3 0.00 0.00 0.00 39 1013.9
20260904192606 28 223 4.8 9.7 0.00 0.00 0.00 41 1013.9
20260904191834 27 223 4.8 9.7 0.00 0.00 0.00 41 1013.9
20260904191337 27 221 4.8 14.5 0.00 0.00 0.00 43 1014.1
20260904190834 27 220 4.8 14.5 0.00 0.00 0.00 44 1014.2
20260904190333 26 219 4.8 11.3 0.00 0.00 0.00 44 1014.3
20260904185833 26 219 3.2 12.9 0.00 0.00 0.00 49 1014.4
20260904185333 26 219 3.2 12.9 0.00 0.00 0.00 48 1014.4
20260904184835 26 213 4.8 11.3 0.00 0.00 0.00 49 1014.4
20260904184333 26 213 6.4 12.9 0.00 0.00 0.00 49 1014.5
20260904184103 26 214 4.8 12.9 0.00 0.00 0.00 51 1014.6
20260904183333 26 215 4.8 9.7 0.00 0.00 0.00 50 1014.6
20260904183105 25 215 4.8 11.3 0.00 0.00 0.00 52 1014.6
20260904182333 25 217 4.8 11.3 0.00 0.00 0.00 54 1014.6
20260904181834 25 218 3.2 11.3 0.00 0.00 0.00 55 1014.6
20260904181333 25 219 3.2 8.0 0.00 0.00 0.00 52 1014.5
20260904180833 24 219 4.8 8.0 0.00 0.00 0.00 55 1014.6
20260904180334 24 219 6.4 11.3 0.00 0.00 0.00 56 1014.6
20260904180106 24 219 4.8 11.3 0.00 0.00 0.00 57 1014.6
20260904175334 24 219 3.2 11.3 0.00 0.00 0.00 58 1014.6
20260904174834 24 219 3.2 11.3 0.00 0.00 0.00 58 1014.6
20260904174334 24 219 1.6 4.8 0.00 0.00 0.00 59 1014.6
20260904173833 24 219 3.2 9.7 0.00 0.00 0.00 60 1014.7
20260904173334 23 219 4.8 9.7 0.00 0.00 0.00 62 1014.7
20260904172834 23 219 3.2 9.7 0.00 0.00 0.00 63 1014.7
20260904172333 23 219 1.6 9.7 0.00 0.00 0.00 64 1014.6
20260904171834 23 213 1.6 4.8 0.00 0.00 0.00 65 1014.7
20260904171333 23 213 3.2 6.4 0.00 0.00 0.00 66 1014.7
20260904170833 22 213 3.2 8.0 0.00 0.00 0.00 66 1014.6
20260904170604 22 213 3.2 8.0 0.00 0.00 0.00 68 1014.6
20260904165834 22 213 3.2 8.0 0.00 0.00 0.00 69 1014.6
20260904165334 22 217 3.2 8.0 0.00 0.00 0.00 70 1014.5
20260904164833 22 217 3.2 8.0 0.00 0.00 0.00 71 1014.4
20260904164333 21 217 3.2 6.4 0.00 0.00 0.00 72 1014.3
20260904163834 21 217 1.6 4.8 0.00 0.00 0.00 74 1014.3
20260904163334 21 217 3.2 8.0 0.00 0.00 0.00 76 1014.2
20260904162833 20 217 4.8 8.0 0.00 0.00 0.00 75 1014.2
20260904162334 20 217 4.8 9.7 0.00 0.00 0.00 77 1014.2
20260904161833 20 217 4.8 9.7 0.00 0.00 0.00 77 1014.1
20260904161333 20 219 4.8 6.4 0.00 0.00 0.00 79 1014.1
20260904160833 20 219 4.8 6.4 0.00 0.00 0.00 80 1014.1
20260904160334 20 219 3.2 6.4 0.00 0.00 0.00 80 1014.1
20260904155835 19 219 3.2 8.0 0.00 0.00 0.00 81 1014.0
20260904155334 19 219 3.2 8.0 0.00 0.00 0.00 82 1014.1
20260904154834 19 219 3.2 8.0 0.00 0.00 0.00 82 1014.2
20260904154334 19 219 4.8 8.0 0.00 0.00 0.00 82 1014.1
20260904153834 19 219 3.2 8.0 0.00 0.00 0.00 83 1014.2
20260904153333 19 219 1.6 6.4 0.00 0.00 0.00 84 1014.2
20260904152832 18 219 1.6 6.4 0.00 0.00 0.00 84 1014.0
20260904152331 18 219 3.2 6.4 0.00 0.00 0.00 84 1014.1
20260904151831 18 219 3.2 8.0 0.00 0.00 0.00 84 1014.1
20260904151332 18 219 1.6 8.0 0.00 0.00 0.00 84 1014.1
20260904150831 18 219 1.6 6.4 0.00 0.00 0.00 84 1014.2
20260904150333 18 219 1.6 4.8 0.00 0.00 0.00 84 1014.1
20260904145832 18 219 1.6 6.4 0.00 0.00 0.00 84 1014.0
20260904145333 18 219 1.6 6.4 0.00 0.00 0.00 85 1014.0
20260904144832 18 219 0.0 4.8 0.00 0.00 0.00 85 1014.0
20260904144332 17 219 1.6 4.8 0.00 0.00 0.00 84 1014.0
20260904143831 17 219 1.6 4.8 0.00 0.00 0.00 85 1014.0
20260904143332 17 219 0.0 4.8 0.00 0.00 0.00 85 1014.0
20260904143105 17 219 0.0 0.0 0.00 0.00 0.00 85 1014.1
20260904142332 17 219 0.0 0.0 0.00 0.00 0.00 85 1014.0
20260904141831 17 219 0.0 0.0 0.00 0.00 0.00 85 1013.9
20260904141332 17 219 0.0 0.0 0.00 0.00 0.00 85 1013.8
20260904140833 17 219 0.0 0.0 0.00 0.00 0.00 85 1013.7
20260904140604 17 219 0.0 0.0 0.00 0.00 0.00 85 1013.7
20260904135832 17 219 0.0 0.0 0.00 0.00 0.00 85 1013.7
20260904135332 17 219 0.0 0.0 0.00 0.00 0.00 85 1013.6
20260904134832 16 219 0.0 0.0 0.00 0.00 0.00 85 1013.7
20260904134331 16 219 0.0 0.0 0.00 0.00 0.00 85 1013.6
20260904133832 16 219 0.0 0.0 0.00 0.00 0.00 85 1013.6
20260904133332 16 219 0.0 0.0 0.00 0.00 0.00 85 1013.5
20260904132831 16 219 0.0 0.0 0.00 0.00 0.00 84 1013.5
20260904132332 16 219 0.0 0.0 0.00 0.00 0.00 84 1013.6
20260904132103 16 219 0.0 0.0 0.00 0.00 0.00 84 1013.6
20260904131603 17 219 0.0 0.0 0.00 0.00 0.00 84 1013.6
20260904130831 17 219 0.0 0.0 0.00 0.00 0.00 84 1013.6
20260904130333 17 219 0.0 0.0 0.00 0.00 0.00 84 1013.6
20260904125832 17 219 0.0 0.0 0.00 0.00 0.00 84 1013.6
20260904125333 17 219 0.0 3.2 0.00 0.00 0.00 84 1013.6
20260904124833 17 219 0.0 3.2 0.00 0.00 0.00 83 1013.5
20260904124332 17 219 1.6 3.2 0.00 0.00 0.00 83 1013.5
20260904123332 17 219 1.6 6.4 0.00 0.00 0.00 83 1013.4
20260904122833 17 219 1.6 6.4 0.00 0.00 0.00 83 1013.3
20260904122332 17 219 1.6 6.4 0.00 0.00 0.00 83 1013.2
20260904121833 17 219 1.6 6.4 0.00 0.00 0.00 83 1013.1
20260904121606 17 219 1.6 6.4 0.00 0.00 0.00 83 1013.1
20260904120834 17 219 0.0 4.8 0.00 0.00 0.00 83 1013.1
20260904120334 17 219 0.0 3.2 0.00 0.00 0.00 82 1013.1
20260904115331 17 219 1.6 6.4 0.00 0.00 0.00 83 1013.0
20260904114833 17 219 1.6 6.4 0.00 0.00 0.00 83 1013.0
20260904114333 17 219 1.6 4.8 0.00 0.00 0.00 83 1013.1
20260904113832 17 219 0.0 6.4 0.00 0.00 0.00 83 1013.1
20260904113334 17 219 0.0 6.4 0.00 0.00 0.00 83 1013.1
20260904112833 17 219 0.0 4.8 0.00 0.00 0.00 83 1013.0
20260904112605 17 219 0.0 4.8 0.00 0.00 0.00 83 1013.0
20260904111829 17 219 0.0 3.2 0.00 0.00 0.00 83 1013.0
20260904111332 17 219 0.0 0.0 0.00 0.00 0.00 83 1013.0
20260904110829 17 219 0.0 0.0 0.00 0.00 0.00 83 1013.1
20260904110329 17 219 0.0 1.6 0.00 0.00 0.00 83 1013.1
20260904105824 17 219 0.0 3.2 0.00 0.00 0.00 83 1013.0
20260904105325 17 219 0.0 3.2 0.00 0.00 0.00 83 1013.1
20260904104555 17 219 1.6 6.4 0.00 0.00 0.00 83 1013.1
20260904103820 17 219 1.6 6.4 0.00 0.00 0.00 83 1013.1
20260904103320 17 219 1.6 6.4 0.00 0.00 0.00 83 1013.1
20260904102820 17 219 0.0 6.4 0.00 0.00 0.00 83 1013.1
20260904102319 17 219 0.0 0.0 0.00 0.00 0.00 82 1013.1
20260904101820 17 219 0.0 0.0 0.00 0.00 0.00 83 1013.1
20260904101319 17 219 0.0 0.0 0.00 0.00 0.00 83 1013.2
20260904100820 17 219 0.0 0.0 0.00 0.00 0.00 82 1013.1
20260904100317 17 219 0.0 0.0 0.00 0.00 0.00 82 1013.1
20260904095817 17 219 0.0 0.0 0.00 0.00 0.00 82 1013.1
20260904095317 17 219 0.0 0.0 0.00 0.00 0.00 82 1013.1
20260904094816 17 219 0.0 0.0 0.00 0.00 0.00 82 1013.1
20260904094313 17 219 0.0 0.0 0.00 0.00 0.00 82 1013.1
20260904093814 17 219 0.0 0.0 0.00 0.00 0.00 82 1013.0
20260904093311 17 219 0.0 0.0 0.00 0.00 0.00 82 1013.0
20260904092812 17 219 0.0 0.0 0.00 0.00 0.00 82 1013.1
20260904091810 17 219 0.0 3.2 0.00 0.00 0.00 81 1013.0
20260904091308 18 219 0.0 3.2 0.00 0.00 0.00 81 1013.0
20260904090806 18 219 0.0 1.6 0.00 0.00 0.00 81 1013.0
20260904090305 18 219 0.0 3.2 0.00 0.00 0.00 81 1013.0
20260904085806 18 219 1.6 3.2 0.00 0.00 0.00 80 1013.0
20260904085305 18 219 1.6 3.2 0.00 0.00 0.00 80 1013.0
20260904084803 18 219 0.0 3.2 0.00 0.00 0.00 80 1013.0
20260904084301 18 219 1.6 4.8 0.00 0.00 0.00 80 1013.1
20260904083801 18 219 1.6 6.4 0.00 0.00 0.00 80 1013.1
20260904083303 18 219 1.6 6.4 0.00 0.00 0.00 79 1013.2
20260904082803 18 219 3.2 6.4 0.00 0.00 0.00 79 1013.2
20260904082305 18 219 1.6 6.4 0.00 0.00 0.00 79 1013.2
20260904081802 18 219 1.6 4.8 0.00 0.00 0.00 78 1013.2
20260904081300 18 219 1.6 4.8 0.00 0.00 0.00 78 1013.1
20260904080801 18 219 1.6 4.8 0.00 0.00 0.00 78 1013.2
20260904080259 18 219 0.0 4.8 0.00 0.00 0.00 78 1013.1
20260904075759 18 219 0.0 3.2 0.00 0.00 0.00 77 1013.1
20260904075256 18 219 0.0 3.2 0.00 0.00 0.00 77 1013.2
20260904074753 18 219 0.0 3.2 0.00 0.00 0.00 77 1013.2
20260904074256 18 219 0.0 3.2 0.00 0.00 0.00 77 1013.2
20260904073754 18 219 1.6 4.8 0.00 0.00 0.00 76 1013.2
20260904073251 18 219 1.6 4.8 0.00 0.00 0.00 77 1013.2
20260904072752 18 219 1.6 4.8 0.00 0.00 0.00 76 1013.2
20260904071751 18 219 0.0 3.2 0.00 0.00 0.00 75 1013.1
20260904071244 18 219 1.6 4.8 0.00 0.00 0.00 75 1013.1
20260904070743 18 219 1.6 4.8 0.00 0.00 0.00 75 1013.0
20260904070247 18 219 1.6 6.4 0.00 0.00 0.00 75 1013.1
20260904065741 19 219 1.6 6.4 0.00 0.00 0.00 75 1013.1
20260904065241 19 219 3.2 9.7 0.00 0.00 0.00 75 1013.2
20260904065012 19 219 3.2 9.7 0.00 0.00 0.00 75 1013.2
20260904064241 19 219 4.8 8.0 0.00 0.00 0.00 75 1013.1
20260904063741 19 219 4.8 11.3 0.00 0.00 0.00 75 1013.1
20260904063238 19 219 4.8 11.3 0.00 0.00 0.00 75 1013.1
20260904063010 19 219 4.8 11.3 0.00 0.00 0.00 75 1013.1
20260904062232 19 219 4.8 11.3 0.00 0.00 0.00 75 1013.1
20260904061232 19 219 4.8 9.7 0.00 0.00 0.00 76 1013.1
20260904060733 19 219 4.8 9.7 0.00 0.00 0.00 76 1013.1
20260904060233 19 219 4.8 9.7 0.00 0.00 0.00 76 1013.0
20260904055224 20 219 6.4 9.7 0.00 0.00 0.00 76 1013.1
20260904054724 20 219 4.8 9.7 0.00 0.00 0.00 75 1013.1
20260904054218 20 219 4.8 8.0 0.00 0.00 0.00 75 1013.0
20260904053718 20 219 4.8 9.7 0.00 0.00 0.00 75 1013.1
20260904052717 20 219 4.8 11.3 0.00 0.00 0.00 75 1013.1
20260904052217 20 219 4.8 11.3 0.00 0.00 0.00 74 1013.1
20260904051713 20 219 4.8 11.3 0.00 0.00 0.00 74 1013.1
20260904051212 20 219 6.4 11.3 0.00 0.00 0.00 73 1013.1
20260904050710 20 219 6.4 11.3 0.00 0.00 0.00 73 1013.1
20260904050209 20 219 6.4 12.9 0.00 0.00 0.00 72 1013.1
20260904045709 20 219 6.4 12.9 0.00 0.00 0.00 71 1013.1
20260904045206 20 219 4.8 9.7 0.00 0.00 0.00 71 1013.0
20260904044205 21 219 6.4 11.3 0.00 0.00 0.00 69 1012.9
20260904043707 21 219 8.0 14.5 0.00 0.00 0.00 69 1012.8
20260904043204 21 219 8.0 16.1 0.00 0.00 0.00 68 1012.8
20260904042705 21 218 8.0 16.1 0.00 0.00 0.00 67 1012.7
20260904042202 21 215 6.4 11.3 0.00 0.00 0.00 65 1012.7
20260904041703 21 215 8.0 16.1 0.00 0.00 0.00 65 1012.7
20260904041203 21 215 9.7 16.1 0.00 0.00 0.00 64 1012.6
20260904040701 21 209 9.7 14.5 0.00 0.00 0.00 64 1012.6
20260904040433 21 221 9.7 16.1 0.00 0.00 0.00 64 1012.3
20260904035701 21 223 9.7 17.7 0.00 0.00 0.00 64 1012.3
20260904035158 21 222 9.7 17.7 0.00 0.00 0.00 65 1012.3
20260904034659 21 227 9.7 16.1 0.00 0.00 0.00 66 1012.2
20260904034156 21 229 9.7 16.1 0.00 0.00 0.00 66 1012.1
20260904033655 21 223 8.0 16.1 0.00 0.00 0.00 66 1012.0
20260904033154 22 234 6.4 16.1 0.00 0.00 0.00 66 1012.0
20260904032925 22 236 8.0 16.1 0.00 0.00 0.00 66 1011.9
20260904032153 22 230 8.0 14.5 0.00 0.00 0.00 66 1011.9
20260904031653 22 227 9.7 20.9 0.00 0.00 0.00 66 1011.8
20260904031153 22 235 9.7 20.9 0.00 0.00 0.00 65 1011.8
20260904030655 22 230 9.7 20.9 0.00 0.00 0.00 65 1011.6
20260904030152 22 226 9.7 20.9 0.00 0.00 0.00 65 1011.6
20260904025653 22 225 9.7 19.3 0.00 0.00 0.00 64 1011.6
20260904025152 22 220 9.7 19.3 0.00 0.00 0.00 64 1011.6
20260904024653 22 235 9.7 19.3 0.00 0.00 0.00 64 1011.6
20260904024153 22 229 8.0 16.1 0.00 0.00 0.00 63 1011.6
20260904023652 23 229 9.7 17.7 0.00 0.00 0.00 62 1011.5
20260904023422 23 237 9.7 17.7 0.00 0.00 0.00 62 1011.5
20260904022652 23 244 8.0 16.1 0.00 0.00 0.00 62 1011.5
20260904022150 23 236 9.7 19.3 0.00 0.00 0.00 61 1011.5
20260904021919 23 232 9.7 19.3 0.00 0.00 0.00 60 1011.5
20260904021148 23 223 9.7 19.3 0.00 0.00 0.00 60 1011.5
20260904020645 23 242 11.3 19.3 0.00 0.00 0.00 59 1011.5
20260904020144 23 225 12.9 19.3 0.00 0.00 0.00 59 1011.5
20260904015643 23 226 11.3 19.3 0.00 0.00 0.00 58 1011.5
20260904015145 24 224 11.3 20.9 0.00 0.00 0.00 58 1011.5
20260904014644 24 224 12.9 22.5 0.00 0.00 0.00 57 1011.5
20260904014416 25 217 12.9 27.4 0.00 0.00 0.00 56 1011.5
20260904013910 25 214 12.9 27.4 0.00 0.00 0.00 55 1011.5
20260904013139 25 219 11.3 22.5 0.00 0.00 0.00 54 1011.5
20260904012910 25 216 12.9 22.5 0.00 0.00 0.00 54 1011.5
20260904012135 25 214 12.9 24.1 0.00 0.00 0.00 53 1011.5
20260904011635 25 226 12.9 24.1 0.00 0.00 0.00 53 1011.5
20260904011136 26 226 12.9 24.1 0.00 0.00 0.00 52 1011.4
20260904010902 26 244 11.3 20.9 0.00 0.00 0.00 51 1011.4
20260904010132 26 217 12.9 24.1 0.00 0.00 0.00 51 1011.3
20260904005633 26 228 14.5 25.7 0.00 0.00 0.00 51 1011.3
20260904005126 26 216 14.5 25.7 0.00 0.00 0.00 49 1011.3
20260904004625 26 219 12.9 25.7 0.00 0.00 0.00 49 1011.3
20260904004126 26 225 12.9 25.7 0.00 0.00 0.00 49 1011.3
20260904003857 26 223 14.5 25.7 0.00 0.00 0.00 49 1011.4
20260904003126 27 209 14.5 25.7 0.00 0.00 0.00 49 1011.3
20260904002625 26 252 16.1 25.7 0.00 0.00 0.00 50 1011.4
20260904002126 27 217 16.1 27.4 0.00 0.00 0.00 50 1011.3
20260904001858 27 229 14.5 27.4 0.00 0.00 0.00 50 1011.4
20260904001123 27 221 14.5 24.1 0.00 0.00 0.00 50 1011.4
20260904000636 27 225 14.5 25.7 0.00 0.00 0.00 49 1011.4
20260904000122 27 226 14.5 25.7 0.00 0.00 0.00 50 1011.4
20260903235852 28 221 12.9 24.1 0.00 0.00 0.00 49 1011.4
20260903235119 28 219 12.9 24.1 0.00 0.00 0.00 49 1011.5
20260903234631 28 224 14.5 25.7 0.00 0.00 0.00 48 1011.5
20260903234117 28 223 14.5 25.7 0.00 0.00 0.00 47 1011.5
20260903233615 28 216 14.5 27.4 0.00 0.00 0.00 48 1011.6
20260903233116 28 225 14.5 27.4 0.00 0.00 0.00 48 1011.6
20260903232615 28 221 14.5 24.1 0.00 0.00 0.00 46 1011.6
20260903232116 28 221 11.3 24.1 0.00 0.00 0.00 46 1011.6
20260903231616 28 219 12.9 25.7 0.00 0.00 0.00 46 1011.6
20260903230610 28 217 14.5 27.4 0.00 0.00 0.00 44 1011.7
20260903230114 29 211 11.3 24.1 0.00 0.00 0.00 43 1011.7
20260903225842 29 230 12.9 24.1 0.00 0.00 0.00 42 1011.6
20260903225109 29 234 12.9 24.1 0.00 0.00 0.00 42 1011.6
20260903224610 30 233 11.3 24.1 0.00 0.00 0.00 40 1011.7